[[{"header":{"parameterUnit":"m.s-1","parameterCategory":1,"la1":30.2991,"la2":30.254,"lo1":-89.0895,"lo2":-89.0444,"dy":0.0017,"dx":0.0017,"nx":28,"ny":28,"refTime":"2025-09-03T03:00:00:Z","depth":0,"parameterNumber":2,"parameterNumberName":"U-component_of_WINDS"},"data":[0,0,0,0,0,0,0,0,0,0,0,0,0,0,0,0,0,0,0,0,0,0,0,0,0,0,0,0,0,0,0,0,0,0,0,0,0,0,0,0,0,0,0,0,0,0,0,0,0,0,0,0,0,0,0,0,0,0,-3.2245,-3.2246,0,-3.2293,-3.2293,-3.2294,-3.224,-3.2238,-3.2236,-3.2234,-3.2285,-3.2288,-3.2291,0,0,0,0,0,0,0,0,0,0,0,0,0,-3.211,-3.2112,-3.2245,-3.2246,-3.2246,-3.2293,-3.2293,-3.2294,-3.2241,-3.2238,-3.2236,-3.2233,-3.2283,-3.2287,-3.2291,0,0,0,0,0,0,0,0,0,0,0,0,0,-3.2164,-3.2113,-3.2245,-3.2225,-3.2224,-3.2293,-3.2293,-3.2294,-3.2241,-3.2238,-3.2235,-3.2232,-3.2282,-3.2287,-3.2292,-3.2383,0,0,-3.2307,-3.2309,0,0,0,0,0,0,0,0,-3.2161,-3.2169,-3.2227,-3.2227,-3.2225,-3.2257,-3.2264,-3.2324,-3.2242,-3.2235,-3.2234,-3.2231,-3.2278,-3.2283,-3.2299,-3.2385,-3.2387,-3.2307,-3.231,-3.2312,-3.2313,0,0,0,0,0,0,0,-3.2157,-3.2167,-3.2264,-3.2228,-3.2227,-3.2215,-3.2219,-3.2275,-3.2273,-3.2235,-3.2231,-3.2238,-3.2277,-3.2294,-3.23,-3.2388,-3.2307,-3.2311,-3.2314,-3.2316,-3.2553,-3.2556,0,0,0,0,0,0,-3.2156,-3.2164,-3.2262,-3.2265,-3.2185,-3.222,-3.2224,-3.225,-3.2272,-3.2273,-3.224,-3.2235,-3.2287,-3.2294,-3.2301,-3.241,-3.2312,-3.2316,-3.2319,-3.255,-3.2554,-3.2558,0,0,0,0,0,0,-3.2153,-3.2165,-3.226,-3.2214,-3.2225,-3.2225,-3.2255,-3.2253,-3.227,-3.2276,-3.2275,-3.2258,-3.2285,-3.2294,-3.2363,-3.2411,-3.2319,-3.2323,-3.2546,-3.2551,-3.2556,-3.2628,0,0,0,0,0,0,-3.2149,-3.2164,-3.2198,-3.2215,-3.2228,-3.2321,-3.2257,-3.2256,-3.2278,-3.2272,-3.2293,-3.2293,-3.2284,-3.2356,-3.2368,-3.2416,-3.2327,-3.2541,-3.2548,-3.2554,-3.2622,-3.2635,-3.2647,0,0,0,0,0,-3.2145,-3.2217,-3.22,-3.2212,-3.227,-3.2324,-3.2331,-3.2318,-3.2282,-3.2317,-3.2321,-3.2293,-3.2404,-3.2364,-3.2376,-3.2427,-3.2538,-3.2546,-3.2554,-3.2616,-3.2633,-3.2647,0,0,0,0,0,0,-3.2205,-3.2218,-3.22,-3.228,-3.2301,-3.2315,-3.2358,-3.2336,-3.2369,-3.2361,-3.2344,-3.235,-3.2423,-3.2432,-3.2386,-3.2517,-3.2465,-3.2476,-3.2508,-3.2524,-3.2537,-3.2533,-3.2331,0,0,0,0,0,-3.2228,-3.227,-3.228,-3.2349,-3.2361,-3.2358,-3.2381,-3.2369,-3.2391,-3.24,-3.2409,-3.2431,-3.2472,-3.2498,-3.2535,-3.2623,-3.2627,-3.2664,-3.2677,-3.2687,-3.2696,-3.2745,-3.2761,-3.2583,-3.2583,-3.2582,0,0,-3.2275,-3.2288,-3.2315,-3.2361,-3.2377,-3.2422,-3.2366,-3.2415,-3.2449,-3.2407,-3.2473,-3.2481,-3.2505,-3.2584,-3.2619,-3.2593,-3.2747,-3.2697,-3.2705,-3.2709,-3.2754,-3.2771,-3.2786,-3.2588,-3.2587,-3.2586,0,0,-3.2384,-3.2398,-3.2457,-3.2474,-3.2498,-3.2496,-3.2511,-3.2528,-3.2532,-3.2597,-3.2567,-3.2607,-3.2677,-3.2696,-3.2714,-3.2833,-3.2808,-3.2846,-3.2912,-3.2959,-3.2973,-3.2986,-3.3029,-3.3044,-3.2855,-3.2855,-3.2855,0,-3.244,-3.2506,-3.2491,-3.2543,-3.2565,-3.253,-3.2591,-3.2608,-3.2643,-3.2659,-3.263,-3.2717,-3.2731,-3.2815,-3.2844,-3.286,-3.2877,-3.2843,-3.2972,-3.2985,-3.2996,-3.3037,-3.3053,-3.286,-3.2859,-3.2859,-3.2858,0,-3.2574,-3.2621,-3.2666,-3.2701,-3.2728,-3.2785,-3.2779,-3.2808,-3.2795,-3.2796,-3.2864,-3.288,-3.292,-3.2939,-3.2926,-3.3022,-3.3005,-3.2975,-3.2922,-3.3018,-3.3056,-3.3072,-3.2866,-3.2864,-3.2863,-3.2862,0,0,-3.2722,-3.2749,-3.2766,-3.2782,-3.2807,-3.2843,-3.2899,-3.2938,-3.2964,-3.299,-3.3037,-3.3097,-3.3069,-3.3091,-3.308,-3.3121,-3.3216,-3.3086,-3.3086,-3.311,-3.3324,-3.3347,-3.3365,-3.32,-3.3203,-3.3205,-3.3322,0,-3.2832,-3.2928,-3.2917,-3.3009,-3.3052,-3.302,-3.3069,-3.309,-3.3093,-3.3131,-3.3135,-3.3178,-3.3138,-3.3151,-3.319,-3.3196,-3.3259,-3.3187,-3.3244,-3.3247,-3.324,-3.3385,-3.3409,-3.3519,-3.3337,-3.3339,-3.3341,0,-3.2973,-3.3005,-3.3101,-3.312,-3.3138,-3.3182,-3.3218,-3.3255,-3.3279,-3.3278,-3.3303,-3.3286,-3.3343,-3.329,-3.3369,-3.3321,-3.3343,-3.335,-3.3354,-3.3359,-3.33,-3.3395,-3.3553,-3.357,-3.3364,-3.3362,-3.3361,0,-3.3073,-3.3139,-3.3205,-3.322,-3.3244,-3.3276,-3.3288,-3.3308,-3.3334,-3.3366,-3.3382,-3.342,-3.3441,-3.3472,-3.3466,-3.3428,-3.3547,-3.3493,-3.3549,-3.355,-3.3576,-3.3574,-3.3741,-3.359,-3.359,-3.359,-3.3589,0,-3.3197,-3.3257,-3.3251,-3.3292,-3.3359,-3.3346,-3.3413,-3.3421,-3.344,-3.3483,-3.3458,-3.3499,-3.3488,-3.3529,-3.3524,-3.3591,-3.3601,-3.3603,-3.3601,-3.3605,-3.3605,-3.362,-3.3613,-3.3594,-3.3593,-3.3592,-3.3591,0,-3.3319,-3.3317,-3.3387,-3.3405,-3.3411,-3.346,-3.3475,-3.3514,-3.3516,-3.3571,-3.3583,-3.3586,-3.3633,-3.363,-3.3683,-3.368,-3.3763,-3.3752,-3.3755,-3.3753,-3.3809,-3.3804,-3.3991,-3.4016,-3.3849,-3.385,-3.3852,0,-3.3399,-3.3444,-3.3467,-3.3494,-3.3508,-3.3551,-3.3577,-3.3567,-3.3595,-3.3626,-3.3662,-3.3707,-3.3742,-3.3819,-3.3826,-3.3867,-3.3857,-3.392,-3.3863,-3.3867,-3.3859,-3.3857,-3.3862,-3.3931,-3.3933,-3.3935,-3.3936,0,-3.3541,-3.3538,-3.3575,-3.3613,-3.3645,-3.3674,-3.3701,-3.3725,-3.3717,-3.375,-3.3798,-3.3825,-3.388,-3.3925,-3.3964,-3.3977,-3.3956,-3.3954,-3.3969,-3.3974,-3.3974,-3.3976,-3.3786,-3.395,-3.3948,-3.3947,-3.3947,-3.3946,-3.3644,-3.3684,-3.3707,-3.375,-3.3769,-3.3796,-3.3834,-3.3841,-3.388,-3.3923,-3.3915,-3.3969,-3.3994,-3.4044,-3.4061,-3.4104,-3.4082,-3.4104,-3.4109,-3.4115,-3.4122,-3.3967,-3.4111,-3.4111,-3.411,-3.411,-3.411,0,-3.3785,-3.3799,-3.3839,-3.3878,-3.3912,-3.3889,-3.3918,-3.3949,-3.3997,-3.4021,-3.4056,-3.4112,-3.4156,-3.4168,-3.4211,-3.4243,-3.4235,-3.4255,-3.4252,-3.4256,-3.4139,-3.4122,-3.4261,-3.4261,-3.4261,-3.4261,-3.4261,-3.4261,-3.3863,-3.393,-3.393,-3.4006,-3.4019,-3.4072,-3.4091,-3.4115,-3.4135,-3.4198,-3.4235,-3.4242,-3.4262,-3.4306,-3.4346,-3.4348,-3.4366,-3.439,-3.4389,-3.4279,-3.4264,-3.425,-3.4233,-3.4394,-3.4394,-3.4502,-3.4503,-3.4504]},{"header":{"parameterUnit":"m.s-1","parameterCategory":1,"la1":30.2991,"la2":30.254,"lo1":-89.0895,"lo2":-89.0444,"dy":0.0017,"dx":0.0017,"nx":28,"ny":28,"refTime":"2025-09-03T03:00:00:Z","depth":0,"parameterNumber":3,"parameterNumberName":"V-component_of_WINDS"},"data":[0,0,0,0,0,0,0,0,0,0,0,0,0,0,0,0,0,0,0,0,0,0,0,0,0,0,0,0,0,0,0,0,0,0,0,0,0,0,0,0,0,0,0,0,0,0,0,0,0,0,0,0,0,0,0,0,0,0,-0.1672,-0.1672,0,-0.1609,-0.1608,-0.1607,-0.1551,-0.155,-0.1549,-0.1549,-0.1484,-0.1483,-0.1482,0,0,0,0,0,0,0,0,0,0,0,0,0,-0.1744,-0.1743,-0.1672,-0.1671,-0.1671,-0.1609,-0.1608,-0.1607,-0.1551,-0.155,-0.1549,-0.1548,-0.1485,-0.1483,-0.1482,0,0,0,0,0,0,0,0,0,0,0,0,0,-0.17,-0.1743,-0.1672,-0.1635,-0.1631,-0.1609,-0.1608,-0.1607,-0.1551,-0.155,-0.1549,-0.1548,-0.1485,-0.1484,-0.1482,-0.1492,0,0,-0.1477,-0.1476,0,0,0,0,0,0,0,0,-0.1703,-0.1697,-0.1641,-0.1638,-0.1633,-0.1587,-0.161,-0.1568,-0.1551,-0.1581,-0.1549,-0.1548,-0.1519,-0.1515,-0.1505,-0.1489,-0.1486,-0.1477,-0.1476,-0.1475,-0.1475,0,0,0,0,0,0,0,-0.1706,-0.17,-0.1647,-0.1641,-0.1636,-0.1621,-0.1614,-0.1602,-0.1557,-0.1579,-0.1575,-0.1568,-0.1517,-0.1507,-0.1503,-0.1485,-0.1477,-0.1475,-0.1474,-0.1474,-0.1473,-0.1474,0,0,0,0,0,0,-0.1714,-0.1703,-0.1649,-0.1645,-0.1666,-0.1621,-0.1613,-0.1603,-0.1557,-0.1549,-0.1569,-0.1565,-0.151,-0.1505,-0.1501,-0.1509,-0.1475,-0.1474,-0.1473,-0.1472,-0.1473,-0.1474,0,0,0,0,0,0,-0.1716,-0.171,-0.1652,-0.1673,-0.1664,-0.1621,-0.161,-0.1602,-0.1592,-0.1549,-0.1541,-0.1567,-0.1509,-0.1503,-0.1494,-0.1506,-0.1473,-0.1471,-0.1471,-0.1472,-0.1474,-0.1526,0,0,0,0,0,0,-0.1719,-0.1711,-0.1715,-0.1673,-0.1663,-0.1647,-0.1611,-0.1601,-0.1589,-0.1584,-0.1545,-0.1538,-0.1508,-0.1497,-0.1493,-0.1503,-0.147,-0.147,-0.1472,-0.1473,-0.1523,-0.1529,-0.1534,0,0,0,0,0,-0.1721,-0.1732,-0.1715,-0.1709,-0.1667,-0.1648,-0.1642,-0.1607,-0.159,-0.1593,-0.1566,-0.1539,-0.1505,-0.1497,-0.1491,-0.1501,-0.1469,-0.1471,-0.1473,-0.152,-0.1528,-0.1534,0,0,0,0,0,0,-0.1776,-0.1726,-0.1707,-0.1705,-0.1681,-0.1638,-0.1641,-0.1616,-0.1597,-0.1593,-0.1551,-0.1542,-0.1538,-0.1519,-0.151,-0.1508,-0.1483,-0.1485,-0.1521,-0.1528,-0.1533,-0.1538,-0.1469,0,0,0,0,0,-0.1788,-0.1777,-0.1733,-0.1736,-0.1725,-0.1685,-0.1675,-0.165,-0.1624,-0.1614,-0.1586,-0.1561,-0.1545,-0.1535,-0.1518,-0.152,-0.151,-0.1524,-0.1529,-0.1534,-0.1536,-0.1535,-0.154,-0.1481,-0.1481,-0.1481,0,0,-0.1813,-0.1784,-0.1779,-0.1746,-0.1724,-0.1713,-0.1677,-0.1667,-0.1658,-0.1612,-0.1602,-0.1581,-0.1551,-0.1547,-0.1544,-0.1531,-0.155,-0.1537,-0.1541,-0.154,-0.1538,-0.1543,-0.1548,-0.1483,-0.1483,-0.1482,0,0,-0.1852,-0.1829,-0.1828,-0.1807,-0.1775,-0.1748,-0.1748,-0.1709,-0.1693,-0.1682,-0.1647,-0.1636,-0.1609,-0.1589,-0.1575,-0.1605,-0.158,-0.1601,-0.163,-0.163,-0.1634,-0.1638,-0.1649,-0.1653,-0.1603,-0.1603,-0.1603,0,-0.1886,-0.1868,-0.183,-0.1822,-0.1808,-0.1766,-0.1765,-0.1746,-0.171,-0.1702,-0.1687,-0.1652,-0.1629,-0.162,-0.1627,-0.1617,-0.1616,-0.1605,-0.1637,-0.164,-0.1643,-0.1653,-0.1657,-0.1606,-0.1605,-0.1605,-0.1605,0,-0.1912,-0.19,-0.1903,-0.1869,-0.1855,-0.1851,-0.1812,-0.1803,-0.1779,-0.1754,-0.1744,-0.1714,-0.169,-0.1686,-0.1663,-0.1673,-0.1666,-0.1645,-0.1619,-0.1652,-0.1661,-0.1664,-0.161,-0.1609,-0.1608,-0.1607,0,0,-0.1984,-0.1929,-0.1931,-0.1915,-0.1876,-0.1866,-0.1859,-0.1835,-0.1828,-0.1804,-0.1797,-0.1775,-0.1755,-0.1739,-0.1713,-0.1713,-0.1739,-0.1692,-0.169,-0.1701,-0.1748,-0.1765,-0.177,-0.1721,-0.1722,-0.1722,-0.1751,0,-0.2017,-0.2002,-0.1968,-0.1964,-0.1952,-0.1911,-0.1905,-0.188,-0.1857,-0.1843,-0.1816,-0.1801,-0.1776,-0.1766,-0.1764,-0.1736,-0.1748,-0.1734,-0.1714,-0.1714,-0.1724,-0.1774,-0.1791,-0.182,-0.1754,-0.1754,-0.1755,0,-0.2053,-0.2032,-0.2027,-0.1988,-0.1981,-0.1977,-0.1952,-0.1939,-0.191,-0.1893,-0.1875,-0.1846,-0.1837,-0.1813,-0.1799,-0.179,-0.178,-0.1765,-0.1765,-0.1762,-0.1737,-0.1773,-0.1828,-0.1832,-0.1759,-0.1759,-0.1759,0,-0.2106,-0.2076,-0.2069,-0.2056,-0.2011,-0.2009,-0.199,-0.196,-0.1947,-0.1925,-0.1917,-0.1894,-0.1882,-0.1865,-0.1831,-0.1816,-0.182,-0.1794,-0.1805,-0.1806,-0.1808,-0.1809,-0.1863,-0.1802,-0.1802,-0.1802,-0.1802,0,-0.2146,-0.2145,-0.2092,-0.2088,-0.2085,-0.2045,-0.2043,-0.202,-0.1994,-0.1984,-0.1947,-0.1939,-0.1894,-0.188,-0.1853,-0.1846,-0.184,-0.1826,-0.1819,-0.1829,-0.1831,-0.1823,-0.182,-0.1803,-0.1803,-0.1802,-0.1802,0,-0.2205,-0.217,-0.216,-0.2117,-0.2107,-0.2106,-0.207,-0.2064,-0.2038,-0.2026,-0.2021,-0.198,-0.1962,-0.1926,-0.1898,-0.188,-0.1878,-0.1865,-0.1888,-0.1883,-0.1897,-0.1897,-0.1948,-0.1953,-0.1889,-0.189,-0.189,0,-0.2233,-0.2231,-0.2188,-0.2179,-0.2162,-0.2147,-0.2134,-0.2095,-0.2083,-0.2049,-0.2047,-0.2026,-0.2008,-0.1981,-0.1948,-0.1927,-0.1913,-0.1933,-0.191,-0.192,-0.1913,-0.1914,-0.1914,-0.1938,-0.1939,-0.194,-0.194,0,-0.2287,-0.2269,-0.2252,-0.2228,-0.2214,-0.2194,-0.2171,-0.2166,-0.2121,-0.2109,-0.209,-0.2076,-0.2047,-0.2027,-0.2,-0.198,-0.1953,-0.1948,-0.1949,-0.196,-0.1973,-0.1966,-0.1902,-0.1947,-0.1946,-0.1946,-0.1945,-0.1945,-0.2331,-0.2327,-0.2296,-0.2278,-0.2257,-0.2237,-0.2229,-0.2201,-0.2185,-0.2158,-0.2136,-0.2119,-0.2089,-0.2051,-0.2032,-0.2018,-0.2005,-0.2007,-0.2008,-0.2009,-0.2014,-0.1975,-0.2013,-0.2013,-0.2013,-0.2013,-0.2012,0,-0.2382,-0.236,-0.2344,-0.2314,-0.2299,-0.2274,-0.2248,-0.2238,-0.2223,-0.2198,-0.218,-0.2158,-0.2138,-0.2103,-0.208,-0.2076,-0.2063,-0.2071,-0.2071,-0.2067,-0.2027,-0.2028,-0.2082,-0.2082,-0.2082,-0.2082,-0.2082,-0.2082,-0.2407,-0.2399,-0.2378,-0.2359,-0.2336,-0.2319,-0.2306,-0.2287,-0.2267,-0.2244,-0.2227,-0.2205,-0.2175,-0.215,-0.213,-0.212,-0.2114,-0.2126,-0.2113,-0.2076,-0.207,-0.2063,-0.2064,-0.2125,-0.2125,-0.2154,-0.2154,-0.2154]}]]